Location: Arborea
(39.7744°N, 8.5819°E)
Time: 17:31:16
(UTC+00:00)

Cosmos 332 Rocket - Pass Details

Date: 30 May 2022
Orbit: 681 x 703 km, 74.0° (Epoch: 29 June)

Event Time Altitude Azimuth Distance (km) Brightness Sun altitude
Exits shadow 01:29:21 - 287° (WNW) 2,168 6.2 -21.8°
Reaches altitude 10° 01:29:46 10° 292° (WNW) 2,125 6.2 -21.8°
Maximum altitude 01:30:56 11° 306° (NW) 2,072 6.3 -21.6°
Drops below altitude 10° 01:32:07 10° 320° (NW) 2,128 6.5 -21.5°
Sets 01:36:29 0° 358° (N) 3,050 8.0 -21.1°
